Date,TemperatureHighF,TemperatureAvgF,TemperatureLowF,DewpointHighF,DewpointAvgF,DewpointLowF,HumidityHigh,HumidityAvg,HumidityLow,PressureMaxIn,PressureMinIn,WindSpeedMaxMPH,WindSpeedAvgMPH,GustSpeedMaxMPH,PrecipitationSumIn
2013-3-1,47,32,20,28,23,17,91,72,42,30.19,29.98,8,4,12,0.00
2013-3-2,56,42,31,35,31,26,89,69,43,29.98,29.69,12,4,20,0.00
2013-3-3,56,38,31,39,32,28,94,81,49,29.69,29.35,17,6,26,0.09
2013-3-4,29,20,12,23,16,9,91,87,78,30.31,29.54,29,17,45,0.12
2013-3-5,19,14,9,14,10,6,87,84,79,30.41,30.21,13,4,18,0.00
2013-3-6,29,20,11,23,16,8,88,84,71,30.21,29.82,10,4,16,0.00
2013-3-7,37,27,19,30,23,17,91,86,77,30.05,29.80,9,3,16,0.00
2013-3-8,32,27,21,29,24,19,93,90,84,30.07,29.85,8,4,12,0.00
2013-3-9,36,30,22,29,25,18,92,83,70,30.16,29.81,17,6,24,0.00
2013-3-10,43,28,16,25,20,13,90,72,46,30.21,29.82,6,2,10,0.00
2013-3-11,37,33,24,28,23,17,81,67,52,30.07,29.75,26,14,35,0.00
2013-3-12,36,26,16,20,15,11,82,65,44,30.26,30.09,18,6,27,0.00
2013-3-13,65,42,28,37,30,20,83,64,34,30.04,29.79,19,6,25,0.01
2013-3-14,65,44,31,41,34,27,91,70,34,29.95,29.81,12,6,22,0.01
2013-3-15,44,32,26,35,28,21,93,86,64,30.02,29.71,19,6,25,0.00
2013-3-16,21,19,16,18,15,11,91,82,73,30.07,29.86,8,4,14,0.00
2013-3-17,31,23,8,29,20,1,93,88,77,29.86,29.36,30,9,42,0.02
2013-3-18,29,14,2,18,7,-4,81,73,62,30.01,29.85,18,6,29,0.01
2013-3-19,25,18,11,16,10,6,88,73,50,30.33,29.91,13,4,19,0.01
2013-3-20,42,27,10,21,14,6,84,61,38,30.29,29.69,14,5,21,0.04
2013-3-21,32,27,23,23,17,10,92,66,50,29.78,29.63,9,3,15,0.01
2013-3-22,25,22,13,23,18,10,93,87,74,30.08,29.75,12,4,20,0.00
2013-3-23,22,16,6,13,9,2,86,77,64,30.27,30.09,14,8,20,0.00
2013-3-24,21,14,9,15,9,5,85,81,75,30.36,30.26,10,6,17,0.00
2013-3-25,33,14,-4,21,8,-7,86,77,60,30.38,30.18,5,1,8,0.11
2013-3-26,44,24,9,28,17,5,87,75,53,30.12,29.94,4,2,7,0.03
2013-3-27,50,34,18,33,26,15,90,75,42,30.00,29.92,7,2,12,0.01
2013-3-28,56,38,26,38,30,24,93,77,39,30.00,29.93,8,5,12,0.00
2013-3-29,59,44,34,40,35,31,91,73,45,29.98,29.80,6,3,10,0.00
2013-3-30,54,41,30,37,32,25,93,74,49,29.98,29.88,17,5,26,0.01
2013-3-31,33,30,25,27,24,20,90,79,71,30.15,29.92,7,4,13,0.01